Time,TemperatureF,DewpointF,PressureIn,WindDirection,WindDirectionDegrees,WindSpeedMPH,WindSpeedGustMPH,Humidity,HourlyPrecipIn,Conditions,Clouds,dailyrainin,SolarRadiationWatts/m^2,SoftwareType,DateUTC
2013-06-24 00:01:00,70.0,64.0,-100.00,NNE,33,0.0,4.0,80,0.00,,,0.00,0.000000,,2013-06-24 04:01:00,
2013-06-24 00:22:00,70.0,64.0,-100.00,NNE,33,0.0,4.0,80,0.00,,,0.00,0.000000,,2013-06-24 04:22:00,
2013-06-24 00:33:00,70.0,64.0,-100.00,NNE,33,0.0,4.0,80,0.00,,,0.00,0.000000,,2013-06-24 04:33:00,
2013-06-24 00:43:00,70.0,64.0,-100.00,NNE,33,0.0,4.0,80,0.00,,,0.00,0.000000,,2013-06-24 04:43:00,
2013-06-24 00:53:00,70.0,64.0,-100.00,NNE,33,0.0,4.0,80,0.00,,,0.00,0.000000,,2013-06-24 04:53:00,
2013-06-24 01:01:00,69.0,65.0,-100.00,NNW,344,1.0,2.0,87,0.00,,,0.00,0.000000,,2013-06-24 05:01:00,
2013-06-24 01:22:00,69.0,65.0,-100.00,NNW,344,1.0,2.0,87,0.00,,,0.00,0.000000,,2013-06-24 05:22:00,
2013-06-24 01:48:00,69.0,65.0,-100.00,NNW,344,1.0,2.0,87,0.00,,,0.00,0.000000,,2013-06-24 05:48:00,
2013-06-24 02:24:00,69.0,64.0,-100.00,ENE,63,1.0,4.0,85,0.00,,,0.00,0.000000,,2013-06-24 06:24:00,
2013-06-24 02:40:00,69.0,64.0,-100.00,ENE,63,1.0,4.0,85,0.00,,,0.00,0.000000,,2013-06-24 06:40:00,
2013-06-24 02:48:00,69.0,64.0,-100.00,ENE,63,1.0,4.0,85,0.00,,,0.00,0.000000,,2013-06-24 06:48:00,
2013-06-24 02:57:00,69.0,64.0,-100.00,ENE,63,1.0,4.0,85,0.00,,,0.00,0.000000,,2013-06-24 06:57:00,
2013-06-24 03:01:00,67.0,64.0,-100.00,NNE,13,2.0,3.0,91,0.00,,,0.00,0.000000,,2013-06-24 07:01:00,
2013-06-24 03:31:00,67.0,64.0,-100.00,NNE,13,2.0,3.0,91,0.00,,,0.00,0.000000,,2013-06-24 07:31:00,
2013-06-24 03:38:00,67.0,64.0,-100.00,NNE,13,2.0,3.0,91,0.00,,,0.00,0.000000,,2013-06-24 07:38:00,
2013-06-24 03:49:00,67.0,64.0,-100.00,NNE,13,2.0,3.0,91,0.00,,,0.00,0.000000,,2013-06-24 07:49:00,
2013-06-24 03:58:00,67.0,64.0,-100.00,NNE,13,2.0,3.0,91,0.00,,,0.00,0.000000,,2013-06-24 07:58:00,
2013-06-24 04:01:00,65.0,64.0,-100.00,SW,218,2.0,3.0,95,0.00,,,0.00,0.000000,,2013-06-24 08:01:00,
2013-06-24 04:37:00,65.0,64.0,-100.00,SW,218,2.0,3.0,95,0.00,,,0.00,0.000000,,2013-06-24 08:37:00,
2013-06-24 04:47:00,65.0,64.0,-100.00,SW,218,2.0,3.0,95,0.00,,,0.00,0.000000,,2013-06-24 08:47:00,
2013-06-24 05:01:00,65.0,64.0,-100.00,North,349,1.0,2.0,96,0.00,,,0.00,0.000000,,2013-06-24 09:01:00,
2013-06-24 05:38:00,65.0,64.0,-100.00,North,349,1.0,2.0,96,0.00,,,0.00,0.000000,,2013-06-24 09:38:00,
2013-06-24 05:49:00,65.0,64.0,-100.00,North,349,1.0,2.0,96,0.00,,,0.00,0.000000,,2013-06-24 09:49:00,
2013-06-24 06:00:00,65.0,64.0,-100.00,North,349,1.0,2.0,96,0.00,,,0.00,0.000000,,2013-06-24 10:00:00,
2013-06-24 06:01:00,64.0,63.0,-100.00,NW,320,1.0,3.0,96,0.00,,,0.00,1.000000,,2013-06-24 10:01:00,
2013-06-24 06:38:00,64.0,63.0,-100.00,NW,320,1.0,3.0,96,0.00,,,0.00,1.000000,,2013-06-24 10:38:00,
2013-06-24 06:51:00,64.0,63.0,-100.00,NW,320,1.0,3.0,96,0.00,,,0.00,1.000000,,2013-06-24 10:51:00,
2013-06-24 06:59:00,64.0,63.0,-100.00,NW,320,1.0,3.0,96,0.00,,,0.00,1.000000,,2013-06-24 10:59:00,
2013-06-24 07:01:00,66.0,65.0,-100.00,ESE,123,1.0,2.0,96,0.00,,,0.00,28.000000,,2013-06-24 11:01:00,
2013-06-24 07:35:00,66.0,65.0,-100.00,ESE,123,1.0,2.0,96,0.00,,,0.00,28.000000,,2013-06-24 11:35:00,
2013-06-24 07:58:00,66.0,65.0,-100.00,ESE,123,1.0,2.0,96,0.00,,,0.00,28.000000,,2013-06-24 11:58:00,
2013-06-24 08:01:00,71.0,68.0,-100.00,North,2,2.0,2.0,91,0.00,,,0.00,174.000000,,2013-06-24 12:01:00,
2013-06-24 08:26:00,71.0,68.0,-100.00,North,2,2.0,2.0,91,0.00,,,0.00,174.000000,,2013-06-24 12:26:00,
2013-06-24 08:37:00,71.0,68.0,-100.00,North,2,2.0,2.0,91,0.00,,,0.00,174.000000,,2013-06-24 12:37:00,
2013-06-24 08:49:00,71.0,68.0,-100.00,North,2,2.0,2.0,91,0.00,,,0.00,174.000000,,2013-06-24 12:49:00,
2013-06-24 08:55:00,71.0,68.0,-100.00,North,2,2.0,2.0,91,0.00,,,0.00,174.000000,,2013-06-24 12:55:00,
2013-06-24 09:01:00,71.0,65.0,-100.00,ESE,123,1.0,3.0,82,0.00,,,0.00,299.000000,,2013-06-24 13:01:00,
2013-06-24 09:36:00,71.0,65.0,-100.00,ESE,123,1.0,3.0,82,0.00,,,0.00,299.000000,,2013-06-24 13:36:00,
2013-06-24 09:46:00,71.0,65.0,-100.00,ESE,123,1.0,3.0,82,0.00,,,0.00,299.000000,,2013-06-24 13:46:00,
2013-06-24 09:58:00,71.0,65.0,-100.00,ESE,123,1.0,3.0,82,0.00,,,0.00,299.000000,,2013-06-24 13:58:00,
2013-06-24 10:01:00,78.0,69.0,-100.00,SSW,202,2.0,4.0,73,0.00,,,0.00,628.000000,,2013-06-24 14:01:00,
2013-06-24 10:38:00,78.0,69.0,-100.00,SSW,202,2.0,4.0,73,0.00,,,0.00,628.000000,,2013-06-24 14:38:00,
2013-06-24 10:59:00,78.0,69.0,-100.00,SSW,202,2.0,4.0,73,0.00,,,0.00,628.000000,,2013-06-24 14:59:00,
2013-06-24 11:01:00,78.0,69.0,-100.00,South,191,2.0,4.0,74,0.00,,,0.00,463.000000,,2013-06-24 15:01:00,
2013-06-24 11:27:00,78.0,69.0,-100.00,South,191,2.0,4.0,74,0.00,,,0.00,463.000000,,2013-06-24 15:27:00,
2013-06-24 11:37:00,78.0,69.0,-100.00,South,191,2.0,4.0,74,0.00,,,0.00,463.000000,,2013-06-24 15:37:00,
2013-06-24 11:49:00,78.0,69.0,-100.00,South,191,2.0,4.0,74,0.00,,,0.00,463.000000,,2013-06-24 15:49:00,
2013-06-24 11:57:00,78.0,69.0,-100.00,South,191,2.0,4.0,74,0.00,,,0.00,463.000000,,2013-06-24 15:57:00,
2013-06-24 12:01:00,82.0,69.0,-100.00,South,182,2.0,4.0,66,0.00,,,0.00,739.000000,,2013-06-24 16:01:00,
2013-06-24 12:36:00,82.0,69.0,-100.00,South,182,2.0,4.0,66,0.00,,,0.00,739.000000,,2013-06-24 16:36:00,
2013-06-24 12:45:00,82.0,69.0,-100.00,South,182,2.0,4.0,66,0.00,,,0.00,739.000000,,2013-06-24 16:45:00,
2013-06-24 12:56:00,82.0,69.0,-100.00,South,182,2.0,4.0,66,0.00,,,0.00,739.000000,,2013-06-24 16:56:00,
2013-06-24 13:01:00,84.0,73.0,-100.00,South,190,3.0,6.0,69,0.00,,,0.00,786.000000,,2013-06-24 17:01:00,
2013-06-24 13:36:00,84.0,73.0,-100.00,South,190,3.0,6.0,69,0.00,,,0.00,786.000000,,2013-06-24 17:36:00,
2013-06-24 13:48:00,84.0,73.0,-100.00,South,190,3.0,6.0,69,0.00,,,0.00,786.000000,,2013-06-24 17:48:00,
2013-06-24 13:57:00,84.0,73.0,-100.00,South,190,3.0,6.0,69,0.00,,,0.00,786.000000,,2013-06-24 17:57:00,
2013-06-24 14:01:00,78.0,69.0,-100.00,SSW,205,2.0,8.0,74,0.00,,,0.00,340.000000,,2013-06-24 18:01:00,
2013-06-24 14:50:00,78.0,69.0,-100.00,SSW,205,2.0,8.0,74,0.00,,,0.00,340.000000,,2013-06-24 18:50:00,
2013-06-24 15:01:00,85.0,70.0,-100.00,ENE,64,2.0,5.0,60,0.00,,,0.00,740.000000,,2013-06-24 19:01:00,
2013-06-24 15:37:00,85.0,70.0,-100.00,ENE,64,2.0,5.0,60,0.00,,,0.00,740.000000,,2013-06-24 19:37:00,
2013-06-24 15:57:00,85.0,70.0,-100.00,ENE,64,2.0,5.0,60,0.00,,,0.00,740.000000,,2013-06-24 19:57:00,
2013-06-24 16:01:00,82.0,68.0,-100.00,NE,54,2.0,5.0,62,0.00,,,0.00,461.000000,,2013-06-24 20:01:00,
2013-06-24 16:34:00,82.0,68.0,-100.00,NE,54,2.0,5.0,62,0.00,,,0.00,461.000000,,2013-06-24 20:34:00,
2013-06-24 16:47:00,82.0,68.0,-100.00,NE,54,2.0,5.0,62,0.00,,,0.00,461.000000,,2013-06-24 20:47:00,
2013-06-24 16:56:00,82.0,68.0,-100.00,NE,54,2.0,5.0,62,0.00,,,0.00,461.000000,,2013-06-24 20:56:00,
2013-06-24 17:01:00,81.0,69.0,-100.00,NNW,335,1.0,2.0,66,0.00,,,0.00,345.000000,,2013-06-24 21:01:00,
2013-06-24 17:39:00,81.0,69.0,-100.00,NNW,335,1.0,2.0,66,0.00,,,0.00,345.000000,,2013-06-24 21:39:00,
2013-06-24 17:48:00,81.0,69.0,-100.00,NNW,335,1.0,2.0,66,0.00,,,0.00,345.000000,,2013-06-24 21:48:00,
2013-06-24 17:55:00,81.0,69.0,-100.00,NNW,335,1.0,2.0,66,0.00,,,0.00,345.000000,,2013-06-24 21:55:00,
2013-06-24 18:01:00,82.0,67.0,-100.00,SSW,208,2.0,4.0,60,0.00,,,0.00,406.000000,,2013-06-24 22:01:00,
2013-06-24 18:37:00,82.0,67.0,-100.00,SSW,208,2.0,4.0,60,0.00,,,0.00,406.000000,,2013-06-24 22:37:00,
2013-06-24 18:51:00,82.0,67.0,-100.00,SSW,208,2.0,4.0,60,0.00,,,0.00,406.000000,,2013-06-24 22:51:00,
2013-06-24 18:56:00,82.0,67.0,-100.00,SSW,208,2.0,4.0,60,0.00,,,0.00,406.000000,,2013-06-24 22:56:00,
2013-06-24 19:01:00,78.0,69.0,-100.00,SSW,203,2.0,5.0,74,0.00,,,0.00,211.000000,,2013-06-24 23:01:00,
2013-06-24 19:46:00,78.0,69.0,-100.00,SSW,203,2.0,5.0,74,0.00,,,0.00,211.000000,,2013-06-24 23:46:00,
2013-06-24 19:56:00,78.0,69.0,-100.00,SSW,203,2.0,5.0,74,0.00,,,0.00,211.000000,,2013-06-24 23:56:00,
2013-06-24 20:01:00,66.0,65.0,-100.00,SSW,206,5.0,19.0,95,0.11,,,0.11,84.000000,,2013-06-25 00:01:00,
2013-06-24 20:36:00,66.0,65.0,-100.00,SSW,206,5.0,19.0,95,0.11,,,0.11,84.000000,,2013-06-25 00:36:00,
2013-06-24 20:49:00,66.0,65.0,-100.00,SSW,206,5.0,19.0,95,0.11,,,0.11,84.000000,,2013-06-25 00:49:00,
2013-06-24 20:56:00,66.0,65.0,-100.00,SSW,206,5.0,19.0,95,0.11,,,0.11,84.000000,,2013-06-25 00:56:00,
2013-06-24 21:01:00,65.0,64.0,-100.00,SW,229,2.0,10.0,98,0.00,,,0.11,15.000000,,2013-06-25 01:01:00,
2013-06-24 21:46:00,65.0,64.0,-100.00,SW,229,2.0,10.0,98,0.00,,,0.11,15.000000,,2013-06-25 01:46:00,
2013-06-24 21:58:00,65.0,64.0,-100.00,SW,229,2.0,10.0,98,0.00,,,0.11,15.000000,,2013-06-25 01:58:00,
2013-06-24 22:01:00,65.0,65.0,-100.00,SSE,148,2.0,4.0,99,0.00,,,0.11,0.000000,,2013-06-25 02:01:00,
2013-06-24 22:49:00,65.0,65.0,-100.00,SSE,148,2.0,4.0,99,0.00,,,0.11,0.000000,,2013-06-25 02:49:00,
2013-06-24 22:58:00,65.0,65.0,-100.00,SSE,148,2.0,4.0,99,0.00,,,0.11,0.000000,,2013-06-25 02:58:00,
2013-06-24 23:01:00,65.0,65.0,-100.00,SSW,208,1.0,4.0,99,0.00,,,0.11,0.000000,,2013-06-25 03:01:00,
2013-06-24 23:58:00,65.0,65.0,-100.00,SSW,208,1.0,4.0,99,0.00,,,0.11,0.000000,,2013-06-25 03:58:00,